[[{"header":{"parameterUnit":"m.s-1","parameterCategory":1,"la1":30.2991,"la2":30.254,"lo1":-89.0895,"lo2":-89.0444,"dy":0.0017,"dx":0.0017,"nx":28,"ny":28,"refTime":"2025-04-20T21:00:00:Z","depth":0,"parameterNumber":2,"parameterNumberName":"U-component_of_WINDS"},"data":[0,0,0,0,0,0,0,0,0,0,0,0,0,0,0,0,0,0,0,0,0,0,0,0,0,0,0,0,0,0,0,0,0,0,0,0,0,0,0,0,0,0,0,0,0,0,0,0,0,0,0,0,0,0,0,0,0,0,-5.6274,-5.6275,0,-5.6377,-5.6378,-5.6379,-5.6364,-5.6362,-5.6361,-5.6359,-5.6464,-5.6469,-5.6473,0,0,0,0,0,0,0,0,0,0,0,0,0,-5.6068,-5.6072,-5.6274,-5.6275,-5.6277,-5.6377,-5.6378,-5.6379,-5.6364,-5.6362,-5.636,-5.6358,-5.6463,-5.6468,-5.6473,0,0,0,0,0,0,0,0,0,0,0,0,0,-5.6163,-5.6073,-5.6274,-5.6281,-5.6283,-5.6376,-5.6378,-5.638,-5.6365,-5.6362,-5.636,-5.6357,-5.6461,-5.6468,-5.6474,-5.6567,0,0,-5.6494,-5.6497,0,0,0,0,0,0,0,0,-5.6158,-5.6171,-5.6279,-5.6281,-5.6283,-5.6355,-5.6344,-5.6442,-5.6366,-5.6334,-5.6359,-5.6356,-5.643,-5.6439,-5.6464,-5.6571,-5.6576,-5.6495,-5.6499,-5.6502,-5.6504,0,0,0,0,0,0,0,-5.6151,-5.6166,-5.6315,-5.6281,-5.6283,-5.6281,-5.6291,-5.6363,-5.6395,-5.6336,-5.6336,-5.6348,-5.6431,-5.6458,-5.6466,-5.6578,-5.6495,-5.6501,-5.6505,-5.6507,-5.6769,-5.6772,0,0,0,0,0,0,-5.6142,-5.6161,-5.6311,-5.6318,-5.6213,-5.6286,-5.6298,-5.6335,-5.6394,-5.6401,-5.635,-5.6347,-5.6448,-5.6459,-5.647,-5.6583,-5.6502,-5.6508,-5.6512,-5.6766,-5.677,-5.6773,0,0,0,0,0,0,-5.6138,-5.6156,-5.6307,-5.6239,-5.6258,-5.6293,-5.6334,-5.6338,-5.6365,-5.6405,-5.6411,-5.6371,-5.6446,-5.6461,-5.6543,-5.6586,-5.6511,-5.6517,-5.6763,-5.6767,-5.6772,-5.6809,0,0,0,0,0,0,-5.6132,-5.6154,-5.6189,-5.624,-5.6262,-5.6378,-5.6336,-5.6342,-5.6376,-5.6373,-5.6426,-5.6432,-5.6445,-5.6534,-5.655,-5.6594,-5.6522,-5.6759,-5.6765,-5.677,-5.6804,-5.6814,-5.6823,0,0,0,0,0,-5.6125,-5.6194,-5.619,-5.6209,-5.6305,-5.638,-5.6393,-5.6406,-5.638,-5.6415,-5.6442,-5.6431,-5.658,-5.6542,-5.656,-5.6607,-5.6756,-5.6763,-5.677,-5.6799,-5.6812,-5.6822,0,0,0,0,0,0,-5.6146,-5.6201,-5.6197,-5.6285,-5.6328,-5.6377,-5.6422,-5.6418,-5.6469,-5.6464,-5.6479,-5.6491,-5.6575,-5.66,-5.6557,-5.6701,-5.6665,-5.6675,-5.6681,-5.6693,-5.6702,-5.6693,-5.6527,0,0,0,0,0,-5.6161,-5.6217,-5.6262,-5.6336,-5.6358,-5.6387,-5.642,-5.6427,-5.6471,-5.6489,-5.6522,-5.6566,-5.6623,-5.666,-5.6715,-5.6809,-5.6821,-5.6851,-5.686,-5.6868,-5.6876,-5.6929,-5.6943,-5.6795,-5.6795,-5.6795,0,0,-5.6192,-5.623,-5.6263,-5.6341,-5.6375,-5.6433,-5.6402,-5.6464,-5.6507,-5.6499,-5.6578,-5.6605,-5.6656,-5.6745,-5.6786,-5.6768,-5.692,-5.6876,-5.6882,-5.6886,-5.6938,-5.6951,-5.6964,-5.68,-5.6799,-5.6798,0,0,-5.6278,-5.6312,-5.6377,-5.6413,-5.6466,-5.6486,-5.6502,-5.6553,-5.657,-5.6651,-5.6646,-5.67,-5.6797,-5.6834,-5.6866,-5.6972,-5.6964,-5.699,-5.7038,-5.709,-5.7101,-5.7112,-5.7149,-5.7163,-5.6999,-5.6999,-5.6999,0,-5.631,-5.6396,-5.6412,-5.6475,-5.651,-5.6508,-5.6575,-5.6609,-5.6677,-5.6702,-5.6682,-5.6807,-5.6841,-5.6939,-5.6966,-5.6992,-5.7011,-5.6982,-5.7098,-5.7109,-5.7119,-5.7155,-5.7169,-5.7001,-5.7001,-5.7001,-5.7001,0,-5.6433,-5.6494,-5.6541,-5.6607,-5.6648,-5.6713,-5.674,-5.678,-5.6785,-5.6808,-5.6892,-5.6934,-5.6997,-5.7022,-5.7027,-5.7123,-5.711,-5.7095,-5.7057,-5.7135,-5.7169,-5.7183,-5.7005,-5.7004,-5.7003,-5.7003,0,0,-5.6529,-5.6607,-5.6624,-5.6655,-5.6716,-5.6763,-5.6831,-5.6894,-5.6928,-5.6977,-5.7033,-5.7119,-5.7106,-5.7142,-5.7152,-5.7198,-5.728,-5.7177,-5.7179,-5.7194,-5.7389,-5.7398,-5.7414,-5.7278,-5.7281,-5.7283,-5.7384,0,-5.662,-5.6737,-5.6755,-5.6858,-5.6915,-5.6917,-5.6975,-5.702,-5.7044,-5.7097,-5.7124,-5.7184,-5.7163,-5.7185,-5.7231,-5.726,-5.7319,-5.7254,-5.733,-5.7333,-5.7314,-5.7432,-5.7441,-5.7535,-5.7398,-5.74,-5.7402,0,-5.6739,-5.6792,-5.6901,-5.6957,-5.6982,-5.7034,-5.7095,-5.7146,-5.7198,-5.7213,-5.7256,-5.7262,-5.7333,-5.7296,-5.7395,-5.735,-5.7384,-5.7404,-5.7408,-5.7413,-5.7369,-5.7438,-5.7565,-5.7578,-5.7423,-5.7421,-5.742,0,-5.6798,-5.6897,-5.6975,-5.7002,-5.7069,-5.7106,-5.7136,-5.7186,-5.7224,-5.7279,-5.7304,-5.7366,-5.7399,-5.7449,-5.7472,-5.7443,-5.757,-5.7535,-5.7584,-5.7584,-5.7607,-5.7605,-5.7739,-5.7633,-5.7633,-5.7633,-5.7633,0,-5.6895,-5.6961,-5.7002,-5.705,-5.7126,-5.7148,-5.7223,-5.7252,-5.7297,-5.7352,-5.7359,-5.741,-5.7439,-5.7496,-5.7515,-5.7595,-5.761,-5.7625,-5.7628,-5.7622,-5.762,-5.7642,-5.7635,-5.7637,-5.7636,-5.7635,-5.7635,0,-5.697,-5.7001,-5.7086,-5.7144,-5.7161,-5.7214,-5.7264,-5.7312,-5.7338,-5.7408,-5.7426,-5.7467,-5.7534,-5.7564,-5.7647,-5.766,-5.7751,-5.7751,-5.7733,-5.7733,-5.7781,-5.7775,-5.7931,-5.7953,-5.7835,-5.7836,-5.7837,0,-5.7028,-5.708,-5.7145,-5.7182,-5.7213,-5.7273,-5.7313,-5.7339,-5.738,-5.7446,-5.7486,-5.7554,-5.7609,-5.7718,-5.7755,-5.782,-5.782,-5.7871,-5.783,-5.7823,-5.782,-5.7815,-5.7821,-5.7877,-5.7878,-5.7879,-5.788,0,-5.7129,-5.7142,-5.7199,-5.7262,-5.731,-5.7361,-5.7411,-5.7441,-5.7476,-5.7523,-5.7592,-5.7635,-5.7721,-5.7789,-5.7857,-5.7889,-5.7891,-5.7894,-5.7908,-5.7901,-5.7887,-5.7894,-5.775,-5.7889,-5.7888,-5.7887,-5.7887,-5.7886,-5.7196,-5.7243,-5.7296,-5.736,-5.7401,-5.7449,-5.7497,-5.7531,-5.7589,-5.7661,-5.7674,-5.7748,-5.7803,-5.7894,-5.793,-5.7989,-5.7977,-5.7998,-5.8003,-5.8007,-5.801,-5.7881,-5.8002,-5.8002,-5.8002,-5.8002,-5.8001,0,-5.7296,-5.7331,-5.739,-5.7461,-5.7512,-5.7512,-5.7568,-5.7611,-5.7676,-5.7727,-5.7783,-5.7864,-5.7931,-5.7976,-5.8045,-5.8084,-5.8086,-5.81,-5.8096,-5.8104,-5.8017,-5.7997,-5.8097,-5.8097,-5.8097,-5.8097,-5.8097,-5.8097,-5.7353,-5.7432,-5.7453,-5.7553,-5.7589,-5.7662,-5.7694,-5.7739,-5.778,-5.7871,-5.7926,-5.7956,-5.8006,-5.8079,-5.8141,-5.8153,-5.8177,-5.8192,-5.8203,-5.812,-5.811,-5.81,-5.8081,-5.8197,-5.8197,-5.8284,-5.8285,-5.8286]},{"header":{"parameterUnit":"m.s-1","parameterCategory":1,"la1":30.2991,"la2":30.254,"lo1":-89.0895,"lo2":-89.0444,"dy":0.0017,"dx":0.0017,"nx":28,"ny":28,"refTime":"2025-04-20T21:00:00:Z","depth":0,"parameterNumber":3,"parameterNumberName":"V-component_of_WINDS"},"data":[0,0,0,0,0,0,0,0,0,0,0,0,0,0,0,0,0,0,0,0,0,0,0,0,0,0,0,0,0,0,0,0,0,0,0,0,0,0,0,0,0,0,0,0,0,0,0,0,0,0,0,0,0,0,0,0,0,0,3.579,3.5791,0,3.5863,3.5863,3.5864,3.5919,3.5919,3.592,3.592,3.5991,3.5992,3.5994,0,0,0,0,0,0,0,0,0,0,0,0,0,3.5698,3.5699,3.579,3.5791,3.5792,3.5862,3.5863,3.5864,3.5919,3.5919,3.592,3.592,3.5991,3.5992,3.5994,0,0,0,0,0,0,0,0,0,0,0,0,0,3.575,3.5699,3.579,3.5827,3.5831,3.5862,3.5863,3.5865,3.5919,3.5919,3.592,3.5921,3.599,3.5992,3.5994,3.5992,0,0,3.6001,3.6002,0,0,0,0,0,0,0,0,3.5747,3.5754,3.5821,3.5825,3.5829,3.5882,3.5857,3.5907,3.5918,3.5885,3.592,3.5921,3.5954,3.5959,3.5971,3.5996,3.5999,3.6001,3.6002,3.6003,3.6004,0,0,0,0,0,0,0,3.5744,3.5751,3.5818,3.5822,3.5827,3.5841,3.5849,3.5867,3.5914,3.5888,3.5892,3.59,3.5957,3.5969,3.5973,3.6,3.6001,3.6003,3.6004,3.6005,3.6031,3.603,0,0,0,0,0,0,3.5734,3.5748,3.5816,3.5821,3.579,3.5842,3.5851,3.5865,3.5914,3.5923,3.59,3.5903,3.5965,3.5971,3.5976,3.598,3.6003,3.6005,3.6006,3.6031,3.6031,3.603,0,0,0,0,0,0,3.5732,3.574,3.5813,3.5785,3.5796,3.5842,3.5857,3.5866,3.5878,3.5923,3.5932,3.5904,3.5966,3.5973,3.5989,3.5983,3.6006,3.6008,3.6032,3.6031,3.603,3.5986,0,0,0,0,0,0,3.5729,3.5739,3.5738,3.5785,3.5797,3.5825,3.5857,3.5867,3.5882,3.5887,3.5929,3.5937,3.5967,3.5986,3.5991,3.5986,3.601,3.6033,3.6032,3.6031,3.5988,3.5983,3.5979,0,0,0,0,0,3.5726,3.5721,3.5738,3.5746,3.5798,3.5825,3.5832,3.5867,3.5881,3.5882,3.5911,3.5936,3.5983,3.5987,3.5994,3.5989,3.6033,3.6032,3.6031,3.599,3.5984,3.5979,0,0,0,0,0,0,3.567,3.5728,3.5747,3.5757,3.5786,3.5834,3.5835,3.5859,3.5883,3.5887,3.5929,3.5938,3.595,3.5971,3.5975,3.5992,3.6011,3.6011,3.5978,3.5973,3.5969,3.5964,3.6011,0,0,0,0,0,3.566,3.5677,3.5726,3.5731,3.5745,3.5787,3.58,3.5826,3.5857,3.5868,3.5899,3.5927,3.5949,3.5962,3.5984,3.5991,3.6003,3.5992,3.5988,3.5984,3.5983,3.5992,3.5989,3.6026,3.6026,3.6026,0,0,3.5637,3.5671,3.5679,3.5721,3.5746,3.5764,3.5797,3.5813,3.5827,3.587,3.5889,3.5912,3.5947,3.596,3.5967,3.5977,3.5976,3.5982,3.5979,3.5981,3.599,3.5987,3.5984,3.6025,3.6025,3.6025,0,0,3.5605,3.5632,3.564,3.5666,3.5705,3.5734,3.5736,3.5781,3.5799,3.5818,3.5852,3.5869,3.5905,3.5929,3.5946,3.5928,3.5952,3.5934,3.5912,3.592,3.5917,3.5915,3.591,3.5908,3.5934,3.5933,3.5933,0,3.5572,3.5601,3.5641,3.5657,3.5676,3.5718,3.5728,3.575,3.5793,3.5805,3.5817,3.5865,3.5891,3.5912,3.5908,3.5919,3.5924,3.5929,3.5914,3.5912,3.5911,3.5907,3.5905,3.5931,3.5931,3.5932,3.5932,0,3.5559,3.5579,3.5581,3.5625,3.5643,3.5656,3.5698,3.5712,3.5737,3.5765,3.5786,3.582,3.5851,3.5857,3.588,3.5882,3.5888,3.5906,3.5927,3.5904,3.5902,3.5901,3.5928,3.5929,3.5929,3.593,0,0,3.5492,3.5561,3.5561,3.5583,3.5631,3.5647,3.5662,3.5695,3.5707,3.5736,3.5751,3.5782,3.5801,3.5821,3.5847,3.5854,3.5841,3.5872,3.5874,3.5867,3.5848,3.5834,3.5832,3.5857,3.5857,3.5857,3.5846,0,3.5469,3.5501,3.5539,3.5557,3.5578,3.562,3.5634,3.5665,3.5692,3.5714,3.5743,3.5766,3.5788,3.58,3.5809,3.584,3.5838,3.5842,3.5872,3.5873,3.5863,3.583,3.5816,3.5803,3.5845,3.5844,3.5844,0,3.5446,3.5476,3.5497,3.5547,3.5557,3.5568,3.5603,3.5623,3.5659,3.5679,3.5703,3.5733,3.5752,3.577,3.5799,3.5801,3.5816,3.5833,3.5834,3.5838,3.5857,3.5835,3.5799,3.5798,3.5843,3.5843,3.5843,0,3.5398,3.5443,3.5463,3.548,3.5537,3.5545,3.5569,3.5607,3.5626,3.5656,3.5669,3.57,3.5717,3.5741,3.5779,3.5788,3.5804,3.5825,3.5822,3.5821,3.5823,3.5822,3.579,3.5831,3.5831,3.5831,3.5831,0,3.5369,3.538,3.5443,3.5454,3.5469,3.5514,3.5528,3.5555,3.559,3.5608,3.5646,3.5663,3.5711,3.5734,3.5763,3.5784,3.579,3.5808,3.5815,3.5805,3.5803,3.5815,3.5818,3.583,3.583,3.5831,3.5831,0,3.5317,3.5359,3.5384,3.5438,3.5452,3.546,3.5507,3.552,3.5551,3.5575,3.5583,3.5631,3.566,3.57,3.574,3.5761,3.5777,3.5789,3.5765,3.577,3.5766,3.5766,3.5741,3.5741,3.578,3.578,3.5779,0,3.5296,3.5307,3.5363,3.5379,3.5403,3.5428,3.5448,3.5493,3.5512,3.5558,3.5566,3.5598,3.5627,3.5671,3.5709,3.5741,3.5755,3.5744,3.576,3.575,3.5757,3.5756,3.5759,3.574,3.574,3.5739,3.5739,0,3.5255,3.5277,3.5305,3.5341,3.5365,3.5395,3.5427,3.5437,3.549,3.5509,3.5541,3.5563,3.5607,3.5639,3.5677,3.5701,3.5729,3.5734,3.5735,3.5725,3.5711,3.572,3.5756,3.5734,3.5734,3.5735,3.5735,3.5735,3.522,3.5232,3.5275,3.5306,3.5336,3.5365,3.5382,3.5417,3.5444,3.5484,3.5509,3.554,3.558,3.5634,3.5658,3.5683,3.5694,3.5695,3.5695,3.5695,3.5693,3.5707,3.5689,3.569,3.569,3.569,3.569,0,3.5182,3.5213,3.5241,3.5286,3.5311,3.5337,3.5375,3.5394,3.5421,3.5456,3.5485,3.5522,3.5554,3.5597,3.5632,3.5644,3.5658,3.5652,3.5652,3.5658,3.568,3.5676,3.5641,3.5641,3.5641,3.5641,3.5641,3.5641,3.5166,3.519,3.5217,3.5256,3.5287,3.5319,3.5339,3.5367,3.5396,3.5437,3.5465,3.5493,3.5532,3.5571,3.5602,3.5614,3.5626,3.5616,3.5632,3.5652,3.5656,3.566,3.5657,3.5618,3.5618,3.5609,3.5608,3.5608]}]]